GFSFLT1_sfc_wetblb_033.txt.gz
Wetbulb
70.78 71.93 72.48 71.90 71.23 71.84 72.88 73.79 74.49 74.32 74.53 75.58 74.89 75.09 74.69 72.69 70.42 70.47 72.14 70.62 73.37 73.47 72.86 72.69 72.59 72.61 72.04 71.28 71.05 70.17 69.38 68.34 68.58
69.46 69.94 70.63 70.74 70.78 70.80 70.55 71.62 73.92 73.96 74.06 74.16 74.88 74.38 72.70 68.68 68.23 68.36 68.89 70.63 73.28 72.91 72.49 72.30 72.20 72.38 71.96 71.32 70.73 70.27 69.36 67.80 68.27
68.73 68.25 68.96 69.56 69.76 69.70 69.83 70.63 73.00 73.64 73.57 73.22 74.24 73.29 71.84 69.20 67.99 68.16 68.24 71.61 72.21 72.61 72.36 71.72 71.82 71.83 72.04 71.25 70.83 70.70 69.30 67.74 68.44
67.96 67.57 67.12 67.43 67.88 68.40 69.19 70.22 71.86 73.57 72.54 72.55 73.29 72.21 70.10 65.77 66.01 68.39 68.85 72.51 72.47 72.29 72.13 72.25 71.80 71.84 71.94 71.53 71.46 70.61 69.69 68.28 67.98
67.58 67.04 66.46 66.26 66.51 66.57 67.32 69.13 70.51 70.77 70.13 69.90 68.96 70.29 68.09 64.28 64.79 65.20 67.91 70.75 71.04 72.68 72.37 72.36 72.22 71.79 71.97 72.14 71.67 71.10 70.14 68.66 67.74
63.39 64.65 65.78 65.46 65.40 65.53 65.31 66.08 67.09 66.63 65.87 65.44 65.87 67.00 62.69 62.99 63.58 64.51 69.54 68.83 68.79 70.78 71.24 71.50 71.70 71.34 71.85 71.47 71.93 71.22 70.72 69.86 68.51
61.92 62.93 65.02 64.68 64.41 64.08 63.38 62.65 61.61 60.18 54.49 53.15 63.24 61.32 60.78 61.02 61.88 63.63 67.69 66.71 66.29 66.79 68.77 69.69 70.11 70.64 71.47 71.72 71.29 71.32 70.22 70.24 70.30
59.93 57.81 56.93 53.81 58.52 52.15 53.34 50.84 48.97 50.29 50.80 50.17 54.87 58.69 57.81 57.85 59.45 64.03 66.52 66.15 65.62 65.47 66.03 67.79 67.97 68.72 69.78 70.09 70.87 71.35 70.99 69.33 70.42
56.71 55.41 54.38 51.30 50.39 48.13 47.36 45.63 45.95 45.62 46.98 45.96 50.60 54.85 54.54 55.33 56.48 59.93 64.67 65.58 65.40 64.88 64.76 65.34 65.38 66.91 67.49 66.90 67.70 68.68 70.19 70.53 70.01
55.90 53.77 51.99 49.22 47.44 47.66 46.01 44.43 44.47 42.83 42.43 42.77 45.58 52.12 52.01 52.25 53.57 53.64 62.10 63.47 63.71 62.99 62.61 63.06 63.37 63.53 64.73 63.97 63.97 64.54 65.19 66.28 67.68
55.66 52.42 50.23 48.46 46.67 45.98 44.77 44.22 43.14 42.00 41.39 42.38 42.42 47.49 49.69 49.95 49.69 50.33 52.45 59.93 60.24 59.57 59.07 59.73 60.52 61.43 61.17 60.55 60.43 60.99 62.06 62.75 63.01
55.53 52.75 48.86 48.70 47.50 46.23 44.06 43.07 42.43 41.54 42.60 40.70 41.26 42.69 47.12 47.80 47.48 48.60 49.05 52.36 58.01 57.01 56.48 56.96 57.77 57.99 57.90 57.53 57.50 58.19 59.11 59.55 59.99
53.50 52.60 50.72 48.92 47.03 45.47 44.00 43.00 42.31 41.54 40.68 40.12 40.93 40.59 41.44 43.59 45.91 47.11 48.07 48.86 50.25 54.73 55.65 55.56 55.55 55.87 55.59 56.05 56.32 56.75 57.23 57.85 58.19
52.76 52.11 51.24 48.41 46.44 44.64 44.33 42.09 42.36 41.40 41.19 41.60 40.92 40.36 40.38 41.11 44.53 45.51 46.78 47.46 49.10 48.23 54.66 55.43 54.99 55.29 54.71 55.24 55.26 55.40 56.26 56.05 57.02
52.33 49.73 48.76 47.84 46.17 44.62 43.03 42.47 41.34 41.60 41.63 44.97 43.96 40.27 40.28 40.49 40.39 42.28 46.03 45.94 47.30 46.92 46.56 46.67 48.60 55.28 56.71 55.86 55.44 55.18 55.63 55.26 54.88
50.12 50.26 48.95 47.31 47.41 46.97 44.57 42.63 42.03 41.04 40.80 40.84 40.15 39.98 40.43 38.83 39.90 40.09 41.27 43.41 44.80 44.49 45.48 44.24 43.83 45.08 56.56 57.15 55.29 55.40 56.61 55.77 53.93
50.14 49.61 49.16 49.28 47.16 45.59 44.19 43.28 41.17 41.41 40.99 39.88 37.03 37.47 38.41 38.85 39.63 38.89 40.50 40.80 42.61 43.70 44.22 43.61 43.30 43.22 43.67 47.01 54.13 54.50 54.60 55.12 54.79
51.59 50.40 50.07 49.04 49.51 48.50 46.29 45.49 43.37 41.65 40.12 40.07 40.09 34.36 34.84 35.51 37.54 37.41 38.92 39.89 39.64 41.71 42.89 43.24 43.54 42.84 42.76 47.62 49.77 55.14 55.24 54.72 55.12
52.88 51.36 50.35 50.28 48.42 48.91 48.51 47.89 47.24 43.55 41.37 39.61 41.12 37.49 37.54 36.51 35.97 37.42 37.46 38.39 39.17 39.16 40.69 41.89 41.75 41.41 41.36 45.87 49.24 52.75 55.04 54.69 54.51
50.29 50.06 48.90 50.28 48.78 49.09 49.81 48.00 45.86 46.93 42.94 41.16 37.51 35.86 35.24 34.32 35.03 35.31 36.46 37.07 37.86 38.46 38.95 40.14 40.26 40.57 40.65 41.04 44.88 53.16 54.93 55.22 54.87

GFSFLT1_sfc_wetblb_036.txt.gz
Wetbulb
70.84 71.76 70.95 71.26 71.68 72.39 72.70 73.80 74.47 74.32 74.53 75.31 75.05 75.39 74.32 72.52 70.64 70.91 72.07 71.13 73.40 73.40 72.92 72.60 72.71 72.39 71.58 71.23 70.50 69.85 68.70 68.22 69.45
68.65 69.98 70.50 70.38 70.15 70.28 70.44 71.81 73.77 73.79 74.07 74.42 74.97 74.37 72.66 68.91 68.58 68.86 69.72 71.33 72.95 72.84 72.51 72.20 72.23 72.37 71.74 70.94 70.80 69.97 68.36 68.16 69.47
68.11 67.69 68.67 69.04 69.31 69.73 69.94 70.97 72.50 73.50 73.12 73.07 74.35 72.88 71.50 68.86 67.75 67.81 68.52 72.23 72.33 72.72 72.02 71.59 71.56 71.71 71.71 71.14 70.94 69.94 68.12 68.38 67.79
67.61 67.07 66.67 67.13 67.53 68.01 68.82 69.63 72.54 73.27 72.71 73.23 73.09 72.07 70.03 66.18 67.18 68.84 68.34 72.49 72.21 71.86 72.18 71.88 71.71 71.65 71.98 71.45 71.04 70.60 68.59 68.19 68.10
67.14 66.56 66.05 65.84 66.02 66.02 66.73 68.46 70.93 71.14 70.99 70.37 69.83 70.24 68.22 64.43 65.08 66.17 68.38 70.87 71.37 72.33 71.98 71.66 72.06 72.02 71.97 72.00 71.89 70.93 69.61 68.24 67.62
62.46 65.41 65.44 65.25 64.94 65.18 65.06 65.79 67.94 66.89 64.39 66.76 67.31 66.23 63.13 63.43 63.80 64.71 69.78 68.71 69.11 70.15 70.85 71.34 71.38 71.27 71.09 71.59 71.89 71.37 70.29 69.29 68.18
62.26 63.34 64.80 64.89 64.25 64.09 63.70 63.05 62.10 58.82 54.04 53.97 64.26 62.68 61.73 61.99 62.46 63.97 67.80 67.00 66.95 67.27 68.29 69.48 69.94 70.78 71.63 71.73 71.40 71.49 71.13 70.82 69.50
60.99 58.44 57.43 55.19 57.85 53.02 52.25 50.26 48.31 48.77 50.63 50.39 57.85 59.41 58.78 59.02 60.40 64.10 66.64 66.21 65.71 65.55 66.22 67.73 68.60 69.81 69.70 70.05 70.91 70.91 70.59 70.28 70.82
57.58 56.98 55.46 53.26 50.62 48.93 47.59 45.82 44.97 45.17 46.13 46.25 54.44 55.88 55.83 56.43 57.54 60.01 65.00 65.65 65.24 64.69 65.01 65.82 66.20 67.69 67.79 67.79 67.50 68.74 70.00 70.48 70.36
55.99 55.66 54.03 52.28 48.86 47.95 45.86 44.68 43.78 43.21 41.99 42.93 47.71 53.02 53.02 53.28 54.67 55.12 62.54 64.07 64.51 64.14 63.38 63.84 64.05 64.20 65.53 63.97 64.27 65.12 66.03 66.99 67.35
55.89 54.85 52.67 50.34 46.96 46.80 46.13 44.47 43.02 42.32 40.56 41.77 42.30 48.98 50.57 51.16 51.32 51.39 52.72 61.49 62.16 61.75 60.75 60.81 61.50 62.43 62.16 60.97 61.01 61.61 62.85 63.11 63.36
56.41 54.95 52.12 49.55 47.16 45.76 43.88 42.42 41.63 41.26 41.68 40.05 40.81 42.97 48.26 48.94 48.27 48.95 49.64 52.61 59.71 58.90 58.29 58.54 59.25 59.33 58.81 58.12 58.01 58.83 59.71 60.16 60.60
57.20 55.46 55.33 51.16 48.05 46.25 43.89 42.65 41.88 41.27 40.60 39.95 40.12 40.12 41.31 45.59 46.02 46.94 47.84 49.18 50.88 55.79 57.00 56.58 57.02 57.75 57.17 56.85 56.63 57.02 57.31 57.94 58.22
57.37 55.23 54.44 51.93 50.22 46.65 44.65 42.78 42.17 41.13 40.52 40.95 39.99 39.55 39.65 40.61 44.21 44.96 46.35 47.58 50.01 48.91 54.79 56.41 56.18 56.21 56.24 56.35 56.42 56.12 56.59 56.24 56.73
53.24 53.02 51.41 51.11 48.14 46.08 44.00 43.62 41.53 41.69 41.47 44.08 43.20 40.02 40.06 39.85 39.73 40.89 45.74 46.11 47.75 47.74 47.79 48.80 50.17 56.37 57.14 56.54 56.97 56.52 56.24 56.22 54.98
52.66 51.94 49.39 47.91 48.43 49.04 46.31 42.54 42.20 40.99 40.53 40.57 39.80 39.83 40.06 39.05 39.27 39.82 40.75 43.92 45.36 45.83 46.47 45.78 45.40 46.54 55.67 57.80 57.75 57.14 57.24 58.14 55.63
51.30 51.59 52.04 48.55 47.35 45.87 44.72 44.88 42.99 41.55 41.51 40.23 37.56 38.22 39.29 38.31 39.35 38.27 39.71 40.21 42.92 44.02 44.52 44.35 43.86 43.86 44.51 49.49 55.44 55.61 55.74 56.56 56.25
51.03 51.30 50.73 50.25 47.17 47.00 44.70 44.22 43.46 45.31 42.00 42.41 41.58 35.21 35.83 35.16 37.66 37.06 38.21 39.31 39.32 41.28 42.79 43.29 43.72 43.28 43.35 48.08 50.44 54.73 55.35 55.63 55.78
47.95 48.84 48.54 47.85 48.21 46.08 46.96 46.32 45.71 43.59 43.33 41.92 42.87 38.63 37.78 36.98 36.88 37.50 37.15 37.70 39.10 38.99 40.63 42.62 42.80 42.96 42.63 46.45 49.15 51.97 54.61 55.64 55.47
46.96 47.46 47.26 46.92 46.66 46.96 49.08 46.46 45.20 45.40 45.93 41.44 39.06 39.48 36.32 34.71 36.28 36.13 37.17 36.98 37.49 38.76 39.29 40.68 41.22 41.38 41.30 41.77 45.03 52.81 54.83 55.14 55.41

GFSFLT1_sfc_wetblb_042.txt.gz
Wetbulb
71.54 71.47 71.25 71.90 72.34 71.98 72.82 73.32 74.39 74.41 74.04 73.91 74.02 73.89 73.47 73.91 73.98 74.29 73.40 74.23 73.22 72.93 72.82 72.89 72.49 71.97 71.63 70.86 69.99 69.27 70.01 69.33 69.94
69.45 69.43 69.70 70.00 70.06 70.51 71.58 72.35 73.10 74.00 74.12 73.72 73.92 73.80 72.39 73.81 72.83 72.26 72.86 73.89 72.63 72.29 72.43 72.38 72.25 71.73 71.21 70.96 70.30 69.05 70.55 69.89 69.69
68.16 68.21 69.00 69.31 68.58 68.58 69.68 70.92 73.31 73.08 73.39 73.41 73.90 72.76 72.58 72.89 72.46 72.24 71.99 72.12 72.03 71.99 71.68 71.62 71.72 71.79 71.07 71.12 70.25 68.79 69.61 68.44 69.29
68.02 67.40 67.16 67.67 67.76 67.34 68.43 69.03 72.02 72.52 73.06 73.58 73.19 71.43 70.67 72.23 72.50 71.51 71.58 71.74 72.11 71.83 71.53 71.32 71.45 71.76 71.66 71.18 70.77 68.92 69.46 69.05 69.22
67.74 67.10 66.74 66.42 66.50 66.36 66.76 67.66 69.60 69.35 69.85 71.73 72.05 70.06 68.71 71.88 72.16 72.36 71.05 69.82 71.05 71.73 72.39 71.97 71.57 71.73 72.10 71.98 71.76 69.93 69.06 69.27 68.69
68.36 68.22 66.36 66.28 66.21 66.04 65.70 66.45 67.08 65.54 67.18 68.95 69.79 68.75 71.97 71.41 71.14 71.17 68.46 67.57 68.71 69.02 70.31 70.70 71.08 71.43 71.50 71.31 72.08 71.35 69.39 68.73 68.74
67.62 67.04 66.56 66.17 65.99 65.63 65.31 64.87 63.84 64.47 69.61 69.40 67.16 69.98 70.24 68.54 69.11 70.85 67.76 67.01 67.28 67.46 67.88 68.69 69.83 70.68 71.38 72.10 71.68 71.63 70.71 69.50 68.85
68.58 67.34 66.98 66.74 65.73 65.86 64.74 64.41 63.38 62.32 64.41 65.77 66.84 68.29 69.10 69.17 68.74 69.25 67.05 66.82 66.63 66.12 65.90 66.37 68.30 69.58 69.88 70.35 71.50 70.91 71.32 70.84 69.68
68.67 67.12 65.66 65.29 64.91 63.52 63.21 62.52 61.98 61.15 60.87 61.83 64.04 66.55 67.66 68.40 68.79 69.17 65.69 66.15 66.22 65.50 65.00 65.29 66.32 67.52 68.06 67.96 69.37 70.58 70.30 70.35 70.86
69.97 68.15 66.69 65.16 64.45 62.92 60.93 60.39 59.78 59.10 58.41 58.56 59.43 62.45 64.95 66.34 67.21 67.55 64.23 64.73 65.52 65.56 64.84 65.35 66.00 65.39 66.45 65.40 66.56 67.47 68.11 68.52 69.97
69.95 69.35 67.80 65.99 64.63 63.46 60.89 59.09 58.39 57.60 57.18 56.66 57.09 58.27 61.15 63.29 64.43 64.58 64.68 63.28 64.27 64.99 64.95 64.30 65.14 65.27 64.71 63.27 63.10 63.91 64.37 65.19 66.19
68.16 68.20 68.29 67.71 65.84 63.46 61.54 59.34 58.17 57.56 56.90 56.02 56.18 56.19 57.91 60.04 61.00 62.16 62.28 62.12 62.17 62.90 63.04 62.72 63.04 63.95 64.32 61.72 60.90 61.87 62.40 62.21 62.63
64.78 65.36 65.98 67.21 64.80 63.51 61.86 59.84 58.11 57.34 56.78 56.07 55.81 55.26 55.78 57.24 58.46 59.37 59.81 59.60 59.02 60.91 61.12 60.90 61.00 62.34 63.09 61.50 60.02 59.80 60.63 60.52 60.31
62.14 64.45 64.88 65.12 64.59 65.05 62.41 61.15 58.99 57.54 57.05 56.42 56.31 55.85 55.40 55.56 56.09 57.28 58.47 58.81 58.62 59.02 60.50 59.64 59.18 59.89 61.38 61.11 60.05 59.12 59.24 59.23 59.03
57.74 59.27 60.89 62.81 62.70 61.98 63.87 62.35 60.84 58.38 57.74 56.23 54.99 55.88 55.82 55.74 55.49 55.33 56.31 57.38 58.27 58.64 58.84 58.84 58.52 58.73 59.38 59.97 60.38 59.97 59.32 58.93 58.03
55.99 56.17 57.09 58.67 59.56 60.91 61.11 61.90 60.37 58.87 58.13 55.50 55.52 55.73 56.14 55.34 55.04 55.41 55.25 55.99 56.70 57.81 57.94 58.00 57.67 58.11 58.93 59.31 59.81 60.41 60.66 59.71 59.08
54.89 55.03 55.13 55.85 56.28 57.59 58.62 57.60 58.65 59.04 58.57 53.93 53.75 52.97 55.49 55.49 55.35 55.36 54.79 54.78 55.63 56.02 56.74 57.00 56.93 57.40 57.49 58.58 59.68 60.02 60.74 61.00 60.58
54.56 54.49 54.26 54.53 55.07 54.92 56.06 57.50 55.68 53.11 56.26 55.75 53.05 51.03 51.55 56.96 56.79 55.33 55.11 54.63 54.48 55.09 55.91 56.11 56.23 56.26 56.30 57.11 57.32 58.59 59.16 59.05 59.06
54.13 53.73 53.50 53.43 53.85 53.86 54.31 55.20 55.80 54.98 52.35 55.68 54.46 53.13 54.32 53.42 53.18 53.88 53.88 54.52 53.65 54.30 54.98 55.31 55.52 55.67 55.69 56.65 56.75 58.55 58.62 57.87 57.54
52.48 52.05 51.53 51.54 51.93 52.45 53.50 53.59 53.70 54.73 53.32 51.63 52.73 51.93 50.53 52.40 49.77 51.65 52.84 52.70 53.49 54.42 54.66 54.88 55.03 55.31 55.43 55.28 55.78 55.98 57.14 56.54 56.80

GFSFLT1_sfc_wetblb_045.txt.gz
Wetbulb
71.63 71.11 71.35 71.17 72.11 71.91 72.80 73.33 74.15 74.34 74.02 73.78 73.97 73.51 73.23 73.95 72.43 73.77 73.37 73.53 73.45 73.14 73.06 72.98 72.45 72.13 71.40 70.54 69.59 69.99 69.77 70.37 70.79
70.15 70.30 70.08 70.38 70.18 70.58 71.32 72.41 73.07 73.59 73.81 73.98 73.92 73.32 72.99 72.72 71.51 70.96 72.23 72.74 72.60 72.26 72.52 72.62 72.46 71.91 71.71 70.90 69.49 70.43 69.99 70.14 70.43
68.24 68.49 69.61 69.88 69.51 69.29 70.01 70.98 73.52 73.12 73.07 73.56 73.57 72.57 72.60 72.11 70.61 70.44 71.07 72.14 71.91 71.85 71.56 71.67 71.90 71.93 71.37 70.97 69.49 69.90 69.55 69.28 70.75
68.22 67.56 67.27 67.75 68.28 68.30 68.55 69.34 71.60 72.40 73.19 73.58 73.34 71.42 71.59 71.14 70.90 70.08 70.95 73.34 72.30 71.77 71.36 71.13 71.32 71.71 71.64 71.30 70.12 69.10 68.89 69.95 70.07
68.59 68.04 67.32 66.48 66.92 66.91 66.88 68.25 69.40 69.62 70.30 73.09 72.16 70.37 70.32 70.67 70.53 70.28 70.13 70.95 70.75 71.78 72.50 72.25 71.76 71.47 71.95 72.01 71.84 69.42 69.48 69.65 69.25
69.51 69.48 67.56 66.35 66.56 66.54 66.51 66.41 67.61 66.71 68.62 70.77 70.95 70.53 71.32 71.00 69.73 69.72 70.38 68.66 68.67 69.01 70.12 70.61 71.21 71.71 71.55 71.14 72.09 71.02 69.44 69.19 68.90
68.52 67.91 67.43 67.04 66.99 66.51 66.29 65.88 65.90 66.20 67.64 69.98 69.62 68.65 69.75 70.21 69.67 69.62 69.95 68.33 67.53 67.72 67.85 68.90 69.79 70.62 71.16 71.99 71.58 71.90 70.33 69.04 68.93
69.69 68.33 67.88 67.65 66.95 66.15 66.20 65.42 64.03 62.85 63.63 64.72 65.48 66.30 67.44 68.30 68.58 69.50 68.82 67.93 67.90 67.24 66.30 66.67 68.49 69.51 69.74 70.62 71.52 70.98 71.25 70.20 69.13
70.27 68.85 67.95 66.55 65.54 64.37 63.86 62.84 63.08 62.45 61.33 61.02 62.57 63.93 65.76 66.50 67.39 68.87 68.97 67.89 67.71 67.17 65.90 65.42 67.04 67.96 68.17 68.75 70.12 71.27 70.69 70.56 70.68
70.65 70.64 69.21 67.66 66.17 64.50 63.11 61.89 60.85 60.58 59.65 59.00 58.88 59.82 62.77 65.36 66.15 67.95 67.73 66.88 66.99 67.07 65.96 65.13 65.81 66.51 67.46 66.63 67.37 69.14 69.47 69.59 70.19
69.34 69.98 70.22 69.69 68.04 65.86 64.17 61.85 60.11 59.24 58.58 58.03 57.69 57.84 59.53 62.30 64.26 65.17 65.92 65.56 65.60 65.99 66.10 65.35 65.52 66.48 66.40 65.29 64.92 66.09 66.18 66.98 67.47
66.04 66.75 67.59 68.28 68.63 67.89 65.46 62.96 61.04 59.50 58.79 57.53 57.27 57.60 57.13 59.60 60.95 63.13 64.02 64.13 65.08 64.73 65.13 64.79 64.29 64.96 66.22 64.11 62.95 63.51 63.91 63.97 64.78
62.28 65.39 65.73 66.75 66.40 66.39 65.36 63.07 61.44 60.08 59.11 57.72 57.69 56.81 56.88 56.55 58.46 60.92 61.98 61.97 61.23 63.33 63.89 63.35 63.00 63.36 65.01 64.27 62.05 61.91 62.81 62.40 62.38
57.17 58.83 61.13 64.70 65.42 64.09 63.77 64.52 63.18 60.32 59.87 58.93 58.57 58.04 57.20 56.37 56.29 57.71 60.25 61.33 60.93 60.65 63.06 62.76 62.22 61.86 63.18 63.86 62.57 61.17 61.55 61.51 61.13
56.05 56.55 57.22 58.34 59.75 62.72 63.04 61.72 62.22 62.80 60.05 58.51 57.92 58.24 58.14 57.83 57.18 56.25 57.29 59.04 59.85 59.95 61.29 60.88 59.71 60.53 61.62 62.58 62.64 61.44 60.85 60.53 60.23
54.95 55.51 55.40 56.61 56.54 57.13 59.07 60.51 60.72 58.94 62.60 58.72 57.19 58.27 58.02 56.63 56.77 56.99 56.57 57.43 58.20 58.89 58.99 59.82 58.80 58.29 60.34 61.08 61.86 62.17 61.72 61.08 60.11
52.95 53.77 54.79 54.89 55.47 55.66 56.24 57.39 57.00 57.92 58.43 57.46 56.75 52.49 56.36 57.26 57.16 57.00 56.02 55.81 56.79 57.03 57.83 57.98 58.20 58.70 58.48 59.17 61.35 61.59 62.09 61.99 61.10
53.00 52.95 53.44 53.60 54.52 54.21 55.48 55.84 56.41 55.31 58.07 56.31 54.21 51.23 49.89 55.92 58.24 57.31 56.70 56.14 56.15 56.36 56.78 57.15 57.42 57.30 57.72 59.32 59.27 60.85 61.12 62.05 62.39
52.25 52.20 53.12 53.06 53.02 52.37 53.17 53.50 54.49 55.18 53.52 55.41 55.22 53.64 52.60 50.17 51.29 56.76 57.01 56.87 55.89 56.21 56.41 56.23 56.62 56.77 56.65 58.52 58.85 60.14 60.95 61.62 61.53
52.72 52.00 52.29 52.66 52.15 51.82 51.96 51.97 51.84 53.32 52.48 53.73 53.51 53.80 52.22 51.65 49.41 46.56 52.82 53.87 54.90 55.88 55.65 55.98 56.27 56.37 56.33 56.20 57.27 59.81 60.36 61.08 60.65

GFSFLT1_sfc_wetblb_048.txt.gz
Wetbulb
71.89 71.82 71.57 71.13 71.79 71.82 72.64 73.26 73.78 74.33 74.32 74.21 73.60 73.30 73.58 74.55 70.98 71.92 72.95 71.64 73.38 73.25 73.31 72.88 72.50 71.85 70.92 70.01 70.24 70.27 70.95 71.25 71.63
69.65 70.39 70.65 70.75 70.35 70.77 71.07 72.32 74.08 73.11 73.41 74.30 73.80 73.20 73.84 72.33 68.49 69.74 70.70 71.10 73.20 72.82 72.94 72.92 72.40 72.13 71.33 69.98 70.56 70.34 70.68 70.88 70.97
68.51 67.88 68.70 69.18 69.62 69.33 69.38 70.81 72.48 73.18 72.83 74.33 73.62 72.95 73.36 71.34 68.39 67.85 69.62 72.52 72.45 72.14 72.02 72.13 72.41 71.94 71.77 70.41 70.17 70.49 69.77 71.06 71.34
68.57 67.60 66.84 66.83 67.14 67.47 67.51 69.07 70.88 71.95 73.08 73.56 73.34 72.20 72.36 69.19 68.98 69.44 70.58 73.55 72.58 71.81 71.64 71.51 71.91 72.30 71.81 71.32 69.72 69.87 69.26 70.55 71.53
69.34 68.72 67.82 66.56 66.46 66.74 66.50 67.55 68.92 69.35 70.37 73.21 72.40 71.23 71.34 67.71 67.89 67.51 69.73 72.60 71.83 72.80 72.42 72.02 72.04 71.94 72.42 72.10 70.81 69.90 69.63 69.89 71.21
68.36 69.19 69.27 67.28 66.47 66.80 66.72 66.35 67.70 67.99 68.61 71.24 72.36 71.75 68.38 68.45 67.62 67.11 71.47 71.30 70.30 70.30 70.65 71.05 71.92 71.85 71.60 71.61 72.17 70.33 70.06 69.90 69.64
67.34 68.57 68.61 67.52 66.93 67.31 67.02 66.78 66.31 66.72 64.04 66.73 71.40 66.89 65.71 66.76 66.54 66.90 70.84 70.04 69.59 68.66 68.33 69.19 70.20 71.00 71.03 71.41 71.89 71.54 70.15 69.88 69.43
65.51 65.06 64.92 64.06 66.78 63.46 64.98 63.79 61.72 58.82 59.95 59.95 67.22 65.57 62.91 64.56 66.08 68.03 70.34 69.60 68.95 68.52 67.47 67.68 68.94 69.91 69.77 70.96 71.45 72.07 70.92 69.76 69.64
69.33 68.40 64.55 63.86 62.86 62.53 60.20 60.19 60.12 59.43 57.85 55.63 55.78 58.41 59.75 62.26 63.14 66.80 70.29 69.91 69.23 68.83 67.57 66.83 67.88 69.14 68.79 69.66 70.66 71.57 71.76 70.87 69.90
67.97 67.94 68.53 67.81 62.72 60.77 59.40 58.21 56.95 56.07 56.10 55.27 54.39 53.24 54.59 59.89 61.30 65.54 69.75 69.60 68.92 68.66 68.13 66.71 66.83 67.81 68.19 68.23 69.10 70.70 71.09 71.12 71.16
66.00 66.03 66.76 66.87 66.98 66.66 63.37 59.42 57.12 55.12 54.50 53.86 53.44 52.20 52.19 53.90 58.93 64.34 65.83 68.90 68.34 68.25 68.18 66.99 66.17 66.98 67.86 67.21 67.66 68.69 69.02 69.30 69.45
62.14 63.65 64.64 65.99 66.10 65.55 65.45 63.93 60.47 56.15 55.51 52.96 52.54 52.04 51.69 51.81 54.33 58.75 62.35 64.59 67.31 67.28 67.06 66.92 66.11 66.29 67.41 66.95 66.21 66.57 66.57 67.67 68.29
52.17 53.23 58.71 63.85 63.88 63.66 64.07 63.95 62.72 59.88 55.33 53.66 52.85 52.17 51.52 51.40 51.25 54.96 57.60 60.11 61.49 65.24 66.44 66.02 65.84 65.30 66.14 67.10 65.40 65.36 65.62 65.32 65.87
50.55 51.03 51.47 52.91 59.77 61.21 61.16 61.64 61.67 61.43 60.44 56.23 54.47 54.31 51.53 50.87 52.73 51.43 55.47 56.07 56.34 58.31 64.46 65.63 65.22 64.30 64.66 66.34 65.19 64.15 64.84 64.50 64.30
49.66 50.22 50.51 50.60 50.90 53.00 58.86 58.55 59.19 60.57 60.36 60.83 59.60 54.90 54.73 52.19 50.45 50.26 53.08 54.77 54.91 54.71 56.23 59.86 60.32 63.64 63.32 64.69 65.55 63.76 63.06 63.67 63.28
48.10 48.15 49.43 49.80 49.39 49.60 50.76 51.98 55.28 55.62 56.87 57.63 58.61 57.28 57.32 53.28 50.89 51.34 50.72 51.62 54.68 53.65 53.43 56.61 55.38 57.52 62.52 63.68 64.16 64.43 63.11 62.54 61.92
48.85 46.86 47.40 48.61 48.00 48.13 48.45 48.97 49.66 52.38 54.47 53.24 55.19 53.08 54.12 55.92 55.89 51.15 52.07 51.03 52.25 54.10 53.99 53.86 54.19 52.87 55.21 56.37 63.00 63.44 63.40 62.97 62.28
48.40 47.50 46.94 46.46 46.99 46.86 47.11 47.33 47.59 47.11 51.40 54.03 52.47 50.41 48.23 49.30 55.31 55.58 52.60 51.31 51.29 52.44 53.67 54.01 53.46 52.37 53.92 57.02 59.25 62.02 63.23 63.31 62.89
47.96 47.66 46.91 46.34 46.55 45.46 45.30 47.47 45.27 45.65 45.87 50.19 54.32 52.24 52.40 48.55 47.88 52.65 52.73 54.15 51.48 50.77 50.67 53.30 53.18 53.32 51.59 57.16 58.25 60.74 61.93 62.71 63.22
47.23 47.83 47.43 45.81 45.80 46.10 45.53 44.87 44.35 44.34 43.49 44.39 46.56 49.71 49.86 50.06 50.18 48.63 50.93 52.75 52.79 50.26 50.55 51.87 51.60 51.64 51.25 51.53 56.74 60.46 61.03 61.49 62.89